FW1501 Kippens CA current weather conditions

sailwx.info

Wind from 005

Air temperature 4.4° C
Dewpoint 3.6° C

Last reported at 2020-Jul-05 07:00 UTC.
Time now 2020-Jul-05 07:42 UTC

Location: N 48°33' W 058°36'.
View on Google Maps.

See reports from other nearby stations

  
Tides and Currents Weather Stations Pressure Air Temp Water Temp Dewpoint Dewpoint Depression Visibility Wind Speed Wind Dir Waves Ship Positions
date/time (UTC)wind fromknots sea level pressurealtimeterstation pressurevisibilityair tempwater tempwave heightnotes
2020-Jul-05 07:00 005 4.4
2020-Jul-05 06:45 005 4.4
2020-Jul-05 06:30 005 5.0
2020-Jul-05 06:15 005 5.0
2020-Jul-05 06:00 005 5.0
2020-Jul-05 05:45 009 5.6
2020-Jul-05 05:30 005 5.6
2020-Jul-05 05:15 005 5.6
2020-Jul-05 05:00 005 5.6
2020-Jul-05 04:30 005 6.1
2020-Jul-05 04:15 286 6.7
2020-Jul-05 04:01 286 6.7
2020-Jul-05 03:46 286 7.2
2020-Jul-05 03:31 286 7.2
2020-Jul-05 03:16 286 7.8
2020-Jul-05 03:01 286 7.8
2020-Jul-05 02:46 286 8.3
2020-Jul-05 02:31 286 8.3
2020-Jul-05 02:16 286 8.3
2020-Jul-05 02:02 286 8.3
2020-Jul-05 01:45 322 8.3
2020-Jul-05 01:31 322 8.3
2020-Jul-05 01:01 203 8.9
2020-Jul-05 00:46 203 9.4
2020-Jul-05 00:31 203 9.4
2020-Jul-05 00:16 203 10.0
2020-Jul-05 00:01 203 10.6
2020-Jul-04 23:47 203 11.7
2020-Jul-04 23:30 203 12.2
2020-Jul-04 23:18 223 12.2
2020-Jul-04 23:01 201 12.8
2020-Jul-04 22:45 200 13.3
2020-Jul-04 22:31 218 13.3
2020-Jul-04 22:16 201 13.9
2020-Jul-04 22:01 207 13.9
2020-Jul-04 21:45 202 14.4
2020-Jul-04 21:30 178 13.9
2020-Jul-04 21:15 215 13.9
2020-Jul-04 21:00 167 13.9
2020-Jul-04 20:45 200 14.4
2020-Jul-04 20:30 209 14.4
2020-Jul-04 20:16 192 14.4
2020-Jul-04 20:01 182 15.0
2020-Jul-04 19:46 190 15.0
2020-Jul-04 19:31 188 14.4
2020-Jul-04 19:15 201 15.0
2020-Jul-04 19:01 200 15.0
2020-Jul-04 18:45 231 15.0
2020-Jul-04 18:30 168 15.6
2020-Jul-04 18:15 198 16.1
2020-Jul-04 18:00 132 16.1
2020-Jul-04 17:45 195 15.6
2020-Jul-04 17:30 226 15.6
2020-Jul-04 17:15 161 15.6
2020-Jul-04 17:00 192 15.6
2020-Jul-04 16:45 143 15.6
2020-Jul-04 16:30 167 15.6
2020-Jul-04 16:15 155 15.0
2020-Jul-04 16:00 184 15.0
2020-Jul-04 15:45 186 15.0
2020-Jul-04 15:30 143 15.6
2020-Jul-04 15:15 049 15.6
2020-Jul-04 15:00 107 15.6
2020-Jul-04 14:45 111 15.6
2020-Jul-04 14:30 123 14.4
2020-Jul-04 14:17 137 14.4
2020-Jul-04 14:02 147 13.9
2020-Jul-04 13:47 107 13.9
2020-Jul-04 13:31 133 13.9
2020-Jul-04 13:16 156 13.9
2020-Jul-04 13:01 148 13.9
2020-Jul-04 12:46 153 13.3
2020-Jul-04 12:31 161 13.3
2020-Jul-04 12:16 119 12.8
2020-Jul-04 12:00 119 12.8
2020-Jul-04 11:46 107 12.2
2020-Jul-04 11:31 130 11.7
2020-Jul-04 11:15 127 11.7
2020-Jul-04 11:02 073 11.1
2020-Jul-04 10:46 091 11.1
2020-Jul-04 10:30 123 10.6
2020-Jul-04 10:16 220 10.6
2020-Jul-04 10:01 080 10.0
2020-Jul-04 09:45 080 9.4
2020-Jul-04 09:30 355 8.9
2020-Jul-04 09:15 346 8.3
2020-Jul-04 09:00 323 7.8
2020-Jul-04 08:45 317 6.7
2020-Jul-04 08:30 342 6.7
2020-Jul-04 08:15 355 6.7
2020-Jul-04 08:00 350 6.7
2020-Jul-04 07:45 360 6.7
2020-Jul-04 07:30 360 6.7
2020-Jul-04 07:15 360 6.7
2020-Jul-04 06:46 360 6.1
2020-Jul-04 06:31 012 6.1
2020-Jul-04 06:16 355 5.6
2020-Jul-04 06:01 360 5.6
2020-Jul-04 05:46 355 5.6
2020-Jul-04 05:31 360 5.6
2020-Jul-04 05:17 005 5.6
2020-Jul-04 05:01 005 5.6
2020-Jul-04 04:46 343 6.1
2020-Jul-04 04:32 339 6.1
2020-Jul-04 04:15 345 6.1
2020-Jul-04 04:00 360 6.1
2020-Jul-04 03:46 009 6.1
2020-Jul-04 03:31 360 6.7
2020-Jul-04 03:16 028 6.7
2020-Jul-04 03:01 032 6.7
2020-Jul-04 02:46 025 6.7
2020-Jul-04 02:31 024 7.2
2020-Jul-04 02:15 355 7.2
2020-Jul-04 02:00 350 7.2
2020-Jul-04 01:45 340 7.8
2020-Jul-04 01:30 340 8.3
2020-Jul-04 01:16 340 8.9
2020-Jul-04 01:00 340 9.4
2020-Jul-04 00:45 340 9.4
2020-Jul-04 00:31 340 10.6
2020-Jul-04 00:15 340 11.1
2020-Jul-04 00:00 340 11.7
2020-Jul-03 23:45 340 12.2
2020-Jul-03 23:30 340 12.8
2020-Jul-03 23:15 340 13.9
2020-Jul-03 23:00 340 13.9
2020-Jul-03 22:45 055 14.4
2020-Jul-03 22:30 005 15.0
2020-Jul-03 22:15 057 16.1
2020-Jul-03 22:00 328 17.2
2020-Jul-03 21:45 327 17.2
2020-Jul-03 21:30 333 17.2
2020-Jul-03 21:16 148 17.8
2020-Jul-03 21:01 340 17.8
2020-Jul-03 20:46 355 17.8
2020-Jul-03 20:31 261 17.8
2020-Jul-03 20:16 321 17.8
2020-Jul-03 20:02 083 18.3
2020-Jul-03 19:47 325 18.3
2020-Jul-03 19:31 343 18.9
2020-Jul-03 19:16 331 18.3
2020-Jul-03 19:01 051 17.8
2020-Jul-03 18:46 103 18.3
2020-Jul-03 18:30 325 18.3
2020-Jul-03 18:16 314 18.3
2020-Jul-03 18:01 330 18.3
2020-Jul-03 17:46 312 18.9
2020-Jul-03 17:31 250 18.3
2020-Jul-03 17:16 329 18.3
2020-Jul-03 17:01 337 18.3
2020-Jul-03 16:45 109 18.3
2020-Jul-03 16:31 178 18.3
2020-Jul-03 16:15 217 17.8
2020-Jul-03 16:01 271 18.3
2020-Jul-03 15:46 316 17.2
2020-Jul-03 15:31 259 16.7
2020-Jul-03 15:16 044 16.1
2020-Jul-03 15:00 215 16.1
2020-Jul-03 14:45 200 15.6
2020-Jul-03 14:30 213 14.4
2020-Jul-03 14:15 257 13.9
2020-Jul-03 14:00 192 13.9
2020-Jul-03 13:45 186 15.6
2020-Jul-03 13:30 116 15.6
2020-Jul-03 13:15 148 15.0
2020-Jul-03 13:00 078 14.4
2020-Jul-03 12:45 070 13.9
2020-Jul-03 12:16 059 13.3
2020-Jul-03 12:01 100 12.8
2020-Jul-03 11:47 080 12.2
2020-Jul-03 11:32 108 12.2
2020-Jul-03 11:16 061 11.7
2020-Jul-03 11:01 051 11.7
2020-Jul-03 10:47 121 11.1
2020-Jul-03 10:30 099 10.6
2020-Jul-03 10:16 067 10.0
2020-Jul-03 10:00 042 10.0
2020-Jul-03 09:46 101 9.4
2020-Jul-03 09:31 048 9.4
2020-Jul-03 09:15 065 8.3
2020-Jul-03 09:00 054 8.3
2020-Jul-03 08:45 054 8.3
2020-Jul-03 08:30 056 8.3
2020-Jul-03 08:15 045 8.3
2020-Jul-03 08:00 040 8.3
2020-Jul-03 07:45 053 8.3
2020-Jul-03 07:30 049 8.3
2020-Jul-03 07:15 063 8.9
2020-Jul-03 07:00 049 8.9